Skip Page Navigation
NASA JPL Caltech
NASA Logo - Jet Propulsion Laboratory + View the NASA Portal
+ Center for Near-Earth Object Studies
JPL Home Earth Solar System Stars & Galaxies Technology
JPL Solar System Dynamics
BODIES ORBITS EPHEMERIDES TOOLS PHYSICAL DATA DISCOVERY FAQ SITE MAP
JPL Small-Body Database Browser
Search: [ help ]  
362124 (2009 DJ13)
Classification: Main-belt Asteroid          SPK-ID: 2362124
Ephemeris | Orbit Diagram | Orbital Elements | Mission Design | Physical Parameters | Discovery Circumstances ]

[ show orbit diagram ]
Orbital Elements at Epoch 2459200.5 (2020-Dec-17.0) TDB
Reference: JPL 13 (heliocentric ecliptic J2000)
 Element Value Uncertainty (1-sigma)   Units 
e .1600576118867423 1.0611e-07  
a 2.562897130313876 2.5677e-08 au
q 2.152685936124452 2.8819e-07 au
i 11.78073222841706 9.6879e-06 deg
node 342.6649496279346 2.0439e-05 deg
peri 117.1370523792963 6.3251e-05 deg
M 10.88844306970225 4.8924e-05 deg
tp 2459155.172843744292
(2020-Nov-01.67284374)
0.00020415 TDB
period 1498.63264633859
4.10
2.2522e-05
6.166e-08
d
yr
n .2402189761977628 3.6101e-09 deg/d
Q 2.9731083245033 2.9787e-08 au
  Orbit Determination Parameters
   # obs. used (total)      352  
   data-arc span      6372 days (17.45 yr)  
   first obs. used      2003-09-30  
   last obs. used      2021-03-11  
   planetary ephem.      DE441  
   SB-pert. ephem.      SB441-N16  
   condition code      0  
   norm. resid. RMS      .52155  
   source      ORB  
   producer      Otto Matic  
   solution date      2021-Apr-14 09:38:20  

Additional Information
 Earth MOID = 1.1973 au 
 Jupiter MOID = 2.20839 au 
 T_jup = 3.387 
[ show covariance matrix ]

Ephemeris | Orbit Diagram | Orbital Elements | Mission Design | Physical Parameters | Discovery Circumstances ]

Physical Parameter Table
Parameter Symbol Value Units Sigma Reference Notes
absolute magnitude H 17.00   n/a MPCxxxxx  

362124 (2009 DJ13)          Discovered 2009-Feb-16 by Spacewatch at Kitt Peak
Reference: Last Updated: 2013-04-29
Ephemeris | Orbit Diagram | Orbital Elements | Mission Design | Physical Parameters | Discovery Circumstances ]
ABOUT SSD CREDITS/AWARDS PRIVACY/COPYRIGHT GLOSSARY LINKS
FirstGov 2021-Jun-20 04:35 UT
(server date/time)  
NASA Home Page
Site Manager:   Ryan S. Park
Webmaster  Alan B. Chamberlin